{"data":{"norad_id":58919,"intl_designator":"2024-024C","name":"WEIHAI-1 01","alt_names":[],"object_type":"PAYLOAD","status":"ACTIVE","operator":null,"country":"PRC","launch_date":"2024-02-03","launch_site_code":"SCSLA","launch_vehicle":null,"mission":null,"orbit_class":"UNKNOWN","rcs_meters":null,"size_class":null,"mass_kg":null,"dimensions":null,"purposes":[],"wikipedia_slug":null,"has_3d_model":false,"image_url":null,"decayed_at":null,"tle_current":{"epoch":"2026-07-14T04:52:04.653696Z","epoch_age_seconds":6153288,"freshness":"OLD","line1":"1 58919U 24024C   26195.20283164  .09371055  24877-5  48370-3 0  9991","line2":"2 58919  97.2891 287.7009 0018689 271.8854  88.0306 16.40529007137224","mean_motion":16.40529007,"eccentricity":0.0018689,"inclination_deg":97.2891,"raan_deg":287.7009,"arg_perigee_deg":271.8854,"mean_anomaly_deg":88.0306,"bstar":0.0004837,"rev_number":13722,"period_min":87.776564379882,"perigee_km":152.1683134867,"apogee_km":176.62299203619,"semimajor_km":6542.5326527614,"source":"CELESTRAK","updated_at":"2026-07-14T09:00:31.731645Z"}}}